Regional Weather Roundup
Issued by NWS Cleveland, OH

Home | Current Version | Previous Version | Text Only | Print | Product List | Glossary Off
Versions: 1 2 3 4 5 6 7 8 9 10 11 12 13 14 15 16 17 18 19 20 21 22 23 24 25 26 27 28 29 30 31 32 33 34 35 36 37 38 39 40 41 42 43 44 45 46 47 48 49 50

000
ASUS41 KCLE 182110
RWRCLE
OHIO REGIONAL WEATHER ROUNDUP
NATIONAL WEATHER SERVICE WILMINGTON, OH
500 PM EDT THU SEP 18 2014

NOTE: "FAIR" INDICATES FEW OR NO CLOUDS BELOW 12,000 FEET WITH NO
SIGNIFICANT WEATHER AND/OR OBSTRUCTIONS TO VISIBILITY.

OHZ001>008-015>018-024>027-034-035-043-044-182200-
   NORTHWEST OHIO

CITY           SKY/WX    TMP DP  RH WIND       PRES   REMARKS
DEFIANCE       PTSUNNY   73  49  42 NE9       30.11S
FINDLAY        MOSUNNY   70  49  47 NE10      30.10R
TOLEDO EXPRESS MOSUNNY   70  49  47 VRB3      30.11S
TOLEDO METCALF SUNNY     68  50  52 E9        30.13S
LIMA           SUNNY     72  48  42 NE10G18   30.09F
$$

OHZ009>014-019>023-028>033-038-089-182200-
   NORTHEAST OHIO

CITY           SKY/WX    TMP DP  RH WIND       PRES   REMARKS
CLE-HOPKINS    MOSUNNY   64  52  64 N13       30.14S
CLE-LAKEFRONT  SUNNY     64  53  67 NE13      30.12S
CUY CO. ARPT   MOSUNNY   64  55  72 NE14      30.13S
LORAIN-ELYRIA  MOSUNNY   69  52  54 NE10      30.13S
ASHTABULA      MOSUNNY   61  51  70 N9        30.14S
AKRON-CANTON   MOSUNNY   66  48  52 NE8       30.10R
WOOSTER        MOSUNNY   69  50  50 NE12      30.11S
MANSFIELD      MOSUNNY   69  50  50 N10G20    30.11S
YOUNGSTOWN     MOSUNNY   65  50  58 N8        30.10S
$$

OHZ042-051>053-060>062-070>072-077>081-182200-
  SOUTHWEST OHIO

CITY           SKY/WX    TMP DP  RH WIND       PRES   REMARKS
CINC-COVINGTON MOSUNNY   72  46  39 E12       30.06F
CINC-LUNKEN    SUNNY     73  48  41 NE12      30.06F
HAMILTON       SUNNY     73  49  42 E9        30.07F
DAYTON         MOSUNNY   73  47  39 E8        30.09F
WRIGHT-PAT AFB SUNNY     73  46  39 NE10      30.08S
DAYTON GENERAL SUNNY     71  47  42 E6        30.07F
WILMINGTON     SUNNY     70  43  37 NE6       30.08S
$$

OHZ036-037-039>041-045>050-054>059-063>069-073>076-082>088-182200-
  CENTRAL AND SOUTHEAST OHIO

CITY           SKY/WX    TMP DP  RH WIND       PRES   REMARKS
COLUMBUS       MOSUNNY   72  46  39 NE5       30.08R
OSU AIRPORT    PTSUNNY   71  46  40 NE10      30.09R
BOLTON FIELD   PTSUNNY   70  48  46 NE8       30.09S
RICKENBACK AFB PTSUNNY   70  46  42 E9        30.08S
NEWARK         PTSUNNY   71  46  40 NE8       30.09R
MARION         MOSUNNY   68  46  45 NE12      30.10S
LANCASTER      MOSUNNY   72  45  37 NE9       30.09S
ZANESVILLE     PTSUNNY   69  44  40 N3        30.09R
NEW PHILLY     MOSUNNY   71  46  40 NE7       30.09S
$$



USA.gov is the U.S. government's official web portal to all federal, state and local government web resources and services.